Tracking 27086 objects as of 22-Mar-2023
HD Live streaming from Space Station
objects crossing your sky now

STARLINK-1913

Track STARLINK-1913 now!
10-day predictions
STARLINK-1913 is classified as:


NORAD ID: 47179
Int'l Code: 2020-088BK
Perigee: 553.5 km
Apogee: 555.4 km
Inclination: 53.1 °
Period: 95.6 minutes
Semi major axis: 6925 km
RCS: Unknown
Launch date: November 25, 2020
Source: United States (US)
Launch site: AIR FORCE EASTERN TEST RANGE (AFETR)
Your satellite tracking list
Your tracking list is empty




NASA's NSSDC Master Catalog

Two Line Element Set (TLE):
1 47179U 20088BK  23081.42721162  .00023994  00000-0  16252-2 0  9990
2 47179  53.0526 134.5702 0001376  91.5696 268.5450 15.06376810128677
Source of the keplerian elements: AFSPC